TimeMST,TemperatureF,Dew PointF,Humidity,Sea Level PressureIn,VisibilityMPH,Wind Direction,Wind SpeedMPH,Gust SpeedMPH,PrecipitationIn,Events,Conditions,WindDirDegrees,DateUTC
12:12 AM,10.4,8.6,92,30.26,10.0,NW,8.1,-,N/A,,Scattered Clouds,320,2011-12-22 07:12:00
12:38 AM,10.4,10.4,100,30.27,10.0,North,4.6,-,N/A,,Mostly Cloudy,350,2011-12-22 07:38:00
12:53 AM,14.0,12.9,95,30.42,10.0,NNW,8.1,-,N/A,,Overcast,340,2011-12-22 07:53:00
1:40 AM,12.2,10.4,92,30.28,10.0,NNW,8.1,-,N/A,,Mostly Cloudy,340,2011-12-22 08:40:00
1:53 AM,16.0,16.0,100,30.42,10.0,North,9.2,-,N/A,,Overcast,360,2011-12-22 08:53:00
2:11 AM,15.8,15.8,100,30.29,1.5,NNW,8.1,-,N/A,,Overcast,340,2011-12-22 09:11:00
2:28 AM,15.8,15.8,100,30.30,3.0,North,4.6,-,N/A,,Overcast,360,2011-12-22 09:28:00
2:53 AM,16.0,15.1,96,30.44,9.0,NNW,6.9,-,N/A,,Overcast,330,2011-12-22 09:53:00
3:48 AM,15.8,15.8,100,30.30,1.8,Calm,Calm,-,N/A,,Overcast,0,2011-12-22 10:48:00
3:53 AM,14.0,14.0,100,30.45,1.8,Calm,Calm,-,N/A,,Overcast,0,2011-12-22 10:53:00
3:57 AM,14.0,12.2,93,30.31,3.0,Calm,Calm,-,N/A,,Overcast,0,2011-12-22 10:57:00
4:29 AM,14.0,12.2,93,30.30,1.8,WSW,3.5,-,N/A,,Overcast,250,2011-12-22 11:29:00
4:42 AM,12.2,12.2,100,30.30,0.8,SW,3.5,-,N/A,,Mist,220,2011-12-22 11:42:00
4:53 AM,12.0,12.0,100,30.47,0.8,SSE,3.5,-,N/A,,Mist,160,2011-12-22 11:53:00
5:01 AM,12.2,12.2,100,30.31,0.5,Calm,Calm,-,N/A,Fog,Light Freezing Fog,0,2011-12-22 12:01:00
5:07 AM,10.4,10.4,100,30.31,1.0,SSW,3.5,-,N/A,,Mist,210,2011-12-22 12:07:00
5:12 AM,8.6,8.6,100,30.31,3.0,SSW,3.5,-,N/A,,Overcast,200,2011-12-22 12:12:00
5:40 AM,5.0,3.2,92,30.31,10.0,Calm,Calm,-,N/A,,Partly Cloudy,0,2011-12-22 12:40:00
5:53 AM,3.0,1.9,95,30.50,10.0,South,4.6,-,N/A,,Clear,180,2011-12-22 12:53:00
6:53 AM,5.0,3.2,92,30.31,4.0,SSW,9.2,-,N/A,,Scattered Clouds,200,2011-12-22 13:53:00
7:03 AM,6.8,5.0,92,30.32,3.0,SSW,4.6,-,N/A,,Mostly Cloudy,200,2011-12-22 14:03:00
7:32 AM,6.8,3.2,85,30.32,10.0,Calm,Calm,-,N/A,,Scattered Clouds,0,2011-12-22 14:32:00
7:53 AM,5.0,3.0,92,30.51,10.0,Calm,Calm,-,N/A,,Clear,0,2011-12-22 14:53:00
8:53 AM,12.0,9.0,88,30.49,10.0,WSW,3.5,-,N/A,,Clear,250,2011-12-22 15:53:00
9:53 AM,18.0,15.1,88,30.47,10.0,SW,12.7,-,N/A,,Clear,230,2011-12-22 16:53:00
10:53 AM,21.9,16.0,78,30.46,10.0,SW,11.5,-,N/A,,Clear,230,2011-12-22 17:53:00
11:53 AM,23.0,16.0,74,30.44,10.0,SW,16.1,21.9,N/A,,Clear,230,2011-12-22 18:53:00
12:53 PM,24.8,15.8,69,30.25,10.0,SW,13.8,-,N/A,,Clear,230,2011-12-22 19:53:00
1:53 PM,26.1,16.0,66,30.38,10.0,SSW,9.2,-,N/A,,Clear,210,2011-12-22 20:53:00
2:53 PM,25.0,15.1,66,30.36,10.0,South,10.4,-,N/A,,Clear,190,2011-12-22 21:53:00
3:53 PM,21.2,12.2,68,30.21,10.0,South,6.9,-,N/A,,Clear,180,2011-12-22 22:53:00
4:53 PM,17.1,10.9,77,30.38,10.0,SE,9.2,-,N/A,,Clear,140,2011-12-22 23:53:00
5:53 PM,17.1,10.0,74,30.41,10.0,Variable,3.5,-,N/A,,Clear,0,2011-12-23 00:53:00
7:53 PM,17.6,8.6,68,30.16,10.0,SW,15.0,-,N/A,,Clear,230,2011-12-23 02:53:00
8:53 PM,19.4,8.6,63,30.16,10.0,SW,13.8,-,N/A,,Clear,220,2011-12-23 03:53:00
9:53 PM,19.0,7.0,59,30.33,10.0,SW,12.7,-,N/A,,Clear,230,2011-12-23 04:53:00
10:53 PM,19.0,6.1,57,30.32,10.0,WSW,8.1,-,N/A,,Clear,240,2011-12-23 05:53:00
11:53 PM,18.0,6.1,60,30.33,10.0,West,5.8,-,N/A,,Clear,280,2011-12-23 06:53:00